Location: Antist
(43.1184°N, 0.1270°E)
Time: 10:29:06
(UTC+00:00)

CSL-04 Debris - Pass Details

Date: 19 January 2020
Orbit: 828 x 848 km, 99.0° (Epoch: 18 February)

Event Time Altitude Azimuth Distance (km) Brightness Sun altitude
Rises 17:58:11 0° 146° (SSE) 3,355 7.1 -11.6°
Reaches altitude 10° 18:00:36 10° 141° (SE) 2,426 6.4 -12.1°
Maximum altitude 18:05:42 47° 69° (ENE) 1,095 4.4 -13.0°
Drops below altitude 10° 18:10:51 10° 357° (N) 2,445 6.5 -13.9°
Sets 18:13:17 0° 352° (N) 3,384 7.3 -14.3°
